Location: Calvatone
(45.1167°N, 10.4333°E)
Time: 11:58:20
(UTC+00:00)

Cosmos 2263 Rocket - Pass Details

Date: 28 January 2023
Orbit: 825 x 847 km, 71.0° (Epoch: 25 March)

Event Time Altitude Azimuth Distance (km) Brightness Sun altitude
Rises 17:08:22 0° 337° (NNW) 3,376 5.4 -8.8°
Reaches altitude 10° 17:10:54 10° 343° (NNW) 2,437 4.6 -9.3°
Maximum altitude 17:16:19 50° 59° (ENE) 1,039 2.3 -10.2°
Drops below altitude 10° 17:21:42 10° 134° (SE) 2,420 4.3 -11.1°
Sets 17:24:12 0° 140° (SE) 3,350 5.1 -11.5°
